Regional Weather Roundup
Issued by NWS

Home | Current Version | Previous Version | Text Only | Print | Product List | Glossary On
Versions: 1 2 3 4 5 6 7 8 9 10 11 12 13 14 15 16 17 18 19 20 21 22 23 24 25 26 27 28 29 30 31 32 33 34 35 36 37 38 39 40 41 42 43 44 45 46 47 48 49 50
000
ASUS46 KSTO 220315
RWRCA

NORTHERN AND CENTRAL CA REGIONAL WEATHER ROUNDUP
NATIONAL WEATHER SERVICE SACRAMENTO CA
800 PM PDT FRI JUL 21 2017

NOTE: FAIR INDICATES FEW OR NO CLOUDS BELOW 12,000 FEET WITH NO
SIGNIFICANT WEATHER AND/OR OBSTRUCTIONS TO VISIBILITY.

CAZ001-003-220400-
NORTHWEST AREA

CITY           SKY/WX    TMP DP  RH WIND       PRES   REMARKS
CRESCENT CITY  CLEAR     57  54  89 NW10      30.09F
UKIAH          CLEAR     81  47  30 N6        29.93R
$$

CAZ006-505>513-220400-
BAY AREA

CITY           SKY/WX    TMP DP  RH WIND       PRES   REMARKS
SANTA ROSA     NOT AVBL
SAN RAFAEL     N/A       75  MM  MM MISG
NAPA           CLEAR     70  56  61 S15       29.90S
CONCORD        CLEAR     77  53  43 S12       29.89S
OAKLAND CITY   N/A      MM  MM  MM MISG
OAKLAND        PTCLDY    63  54  72 W15       29.96S
SAN FRAN CITY  N/A       59  MM  75 MISG
SAN FRAN ARPT  PTCLDY    61  51  70 W15       29.95S
LIVERMORE      CLEAR     71  53  52 W10       29.92R
HAYWARD        CLEAR     64  52  64 W10       29.96S
REDWOOD CITY   N/A       70  MM  48 MISG
MOFFETT ARPT   CLEAR     66  54  65 N10       29.96S
SAN JOSE ARPT  PTCLDY    67  55  65 NW12      29.96R
$$
CAZ034-037-514>518-220400-
CENTRAL COAST

CITY           SKY/WX    TMP DP  RH WIND       PRES   REMARKS
WATSONVILLE    CLEAR     61  55  81 SE7       29.97S
SALINAS        CLEAR     61  54  77 W13       29.98F
MONTEREY       MOCLDY    60  53  77 SW8       30.01S
SAN LUIS OBISP CLEAR     61  53  75 NW12      29.92R
SANTA MARIA    CLEAR     60  55  83 NW9       29.93S
$$
CAZ015-016-220400-
NORTHERN SACRAMENTO VALLEY

CITY           SKY/WX    TMP DP  RH WIND       PRES   REMARKS
REDDING        CLEAR     97  40  14 S6        29.82S HX  92
RED BLUFF      CLEAR     96  53  23 S9        29.83R HX  93
OROVILLE       CLEAR     93  60  33 S3        29.84F HX  93
$$
CAZ016>018-220400-
SOUTHERN SACRAMENTO VALLEY

CITY           SKY/WX    TMP DP  RH WIND       PRES   REMARKS
AUBURN         CLEAR     84  46  26 W5        29.93S
BEALE AFB      CLEAR     88  59  37 S5        29.82S
LINCOLN        FAIR      91  43  18 CALM      29.83S
MARYSVILLE     CLEAR     91  54  28 S6        29.83S
SAC INTL ARPT  CLEAR     87  58  37 S13       29.83S
MATHER AIRPORT NOT AVBL
DOWNTOWN SAC   N/A       85  MM  MM MISG
SAC EXEC ARPT  CLEAR     83  55  38 S7        29.85R
VACAVILLE      CLEAR     88  54  31 SW7       29.85S
TRAVIS AFB     CLEAR     77  52  40 SW16      29.84S
$$
CAZ019>021-220400-
SAN JOAQUIN VALLEY

CITY           SKY/WX    TMP DP  RH WIND       PRES   REMARKS
STOCKTON       CLEAR     85  49  28 W16       29.86S
MODESTO        CLEAR     89  53  29 NW14      29.84S
MERCED         CLEAR     88  56  33 NW8       29.84S
LEMOORE        CLEAR     89  51  27 NW8       29.85S
FRESNO         PTCLDY    91  49  23 NW9       29.85R
HANFORD        PTCLDY    90  50  25 NW7       29.85R
PORTERVILLE      N/A     90  55  30 CALM      29.86R
BAKERSFIELD    CLEAR     91  42  18 NW5       29.86R
$$
CAZ011-012-071-220400-
NORTHERN MOUNTAINS

CITY           SKY/WX    TMP DP  RH WIND       PRES   REMARKS
YREKA          CLEAR     81  41  24 N14       30.06R
MOUNT SHASTA   CLEAR     79  46  31 VRB5      30.08R
ALTURAS        CLEAR     83  30  14 NW10      30.09R
$$
CAZ011-012-071-220400-
SIERRA NEVADA MTNS

CITY           SKY/WX    TMP DP  RH WIND       PRES   REMARKS
TRUCKEE        CLEAR     72  37  28 W8        30.21R
TAHOE VLY ARPT CLEAR     71  41  33 CALM      30.22R
MAMMOTH LAKES  FAIR      75  30  19 CALM      30.23R
$$



USA.gov is the U.S. government's official web portal to all federal, state and local government web resources and services.